Location: Hallow
(52.2167°N, 2.2500°W)
Time: 11:32:31
(UTC+00:00)

Daily predictions for brighter satellites

Satellite Brightness Start Highest point End
(mag) Time Altitude Azimuth Time Altitude Azimuth Time Altitude Azimuth
Cosmos 2026 Rocket 4.4 20:30:50 10° SSE 20:36:47 45° E 20:42:41 10° NNE
Cosmos 2333 Rocket 3.4 20:33:14 10° NNW 20:38:17 32° NE 20:43:20 10° ESE
Cosmos 1980 Rocket 3.8 20:33:42 10° NW 20:38:37 32° WSW 20:43:31 10° SSW
GP-B 3.8 20:34:41 10° NNE 20:38:49 36° E 20:42:56 10° SSE
Cosmos 158 Rocket 4.0 20:33:47 10° S 20:38:56 66° ESE 20:44:14 10° NNE
BREEZE-M DEB (TANK) 4.2 20:37:59 10° W 20:40:58 37° SSW 20:48:34 10° SE
Cosmos 923 Rocket 4.4 20:37:44 10° S 20:42:48 46° ESE 20:47:54 10° NE
Nadezhda 4 Rocket 4.1 20:38:45 10° S 20:44:57 87° W 20:51:17 10° N
SPOT 1/Viking Rocket 3.7 20:39:49 10° SSE 20:45:00 70° ENE 20:50:12 10° NNW
ERS-1 Rocket 3.8 20:41:03 10° SE 20:45:38 36° ENE 20:50:12 10° N
GEOS 3 Rocket 3.7 20:41:55 10° NE 20:47:11 85° NW 20:52:21 10° SW
SL-27 R/B 4.3 20:45:17 10° SE 20:47:26 15° E 20:49:36 10° ENE
USA 245 3.7 20:43:08 10° SSE 20:47:39 55° ENE 20:51:17 10° N
Cosmos 2237 Rocket 4.3 20:46:36 10° NNW 20:50:22 18° NNE 20:54:08 10° ENE
USA 276 4.1 20:48:11 10° WSW 20:50:25 18° SSW 20:52:38 10° SSE
Cosmos 2056 Rocket 3.8 20:45:37 10° NNW 20:50:56 58° ENE 20:56:09 10° SE
Cosmos 2322 Rocket 2.2 20:46:14 10° NNW 20:51:55 89° ENE 20:57:33 10° SSE
Okean 3 Rocket 4.4 20:49:15 10° SSE 20:53:20 35° E 20:57:27 10° NNE
Meteor 1-26 Rocket 4.4 20:50:59 10° NNW 20:56:59 88° W 21:02:45 10° S
Gblst 52 Del rocket 4.4 20:57:51 10° W 21:03:42 83° S 21:10:22 10° E
CARTOSAT-1 3.7 20:59:42 10° SSE 21:03:59 63° ENE 21:08:16 10° N
Cosmos 1428 Rocket 4.5 20:58:13 10° S 21:04:17 69° E 21:10:22 10° NNE
Cosmos 1633 4.4 21:01:21 10° SW 21:04:40 34° WNW 21:08:01 10° N
USA 234 3.8 21:00:08 10° E 21:06:34 60° N 21:13:00 10° WNW
Spot 2 Rocket 3.6 21:03:19 10° SSE 21:08:25 73° ENE 21:13:33 10° NNW
Cosmos 2219 Rocket 3.1 21:04:02 10° NNW 21:09:18 39° NE 21:14:26 10° ESE
Cosmos 1371 Rocket 4.1 21:07:24 10° NNW 21:12:49 89° ENE 21:17:55 12° SSE
Resurs 01 Rocket 2.8 21:11:06 10° SSW 21:15:17 40° W 21:19:31 10° NNW
Cosmos 1680 Rocket 3.5 21:11:30 10° S 21:16:42 64° ESE 21:21:55 10° NNE
Cosmos 1515 Rocket 4.1 21:12:50 10° N 21:17:07 44° ENE 21:20:37 14° SE
Cosmos 2112 Rocket 4.1 21:12:04 10° S 21:17:14 56° ESE 21:22:23 10° NNE
Cosmos 1151 Rocket 3.1 21:12:55 10° NNW 21:17:19 87° W 21:21:42 10° S
Cosmos 1553 Rocket 4.0 21:14:25 10° N 21:20:31 74° ENE 21:26:24 11° SSE
ATLAS CENTAUR R/B 4.4 21:14:34 10° WNW 21:21:32 81° NNE 21:40:54 10° ESE
SL-16 R/B 3.0 21:17:03 10° NW 21:22:29 47° WSW 21:27:51 10° S
Terra 2.2 21:19:00 14° SE 21:22:58 51° ENE 21:27:35 10° N
CZ-2C R/B 3.6 21:21:55 10° NNE 21:26:28 82° ESE 21:30:56 10° SSW
ATLAS 5 CENTAUR R/B 2.8 21:22:07 10° NW 21:27:08 50° NE 21:33:05 10° ESE
Cosmos 1271 Rocket 4.2 21:24:15 10° NNW 21:27:56 36° W 21:31:36 10° SSW
Cosmos 2333 4.3 21:23:07 10° NNW 21:28:44 66° NE 21:33:17 16° SE
Meteor 2-3 Rocket 4.2 21:25:19 10° SSW 21:30:58 67° WNW 21:36:45 10° N
Cosmos 1328 Rocket 3.6 21:26:39 10° NNW 21:31:08 83° W 21:35:09 12° S
Cosmos 1809 Rocket 4.4 21:25:02 10° S 21:31:09 73° E 21:37:16 10° NNE
Cosmos 2228 Rocket 4.3 21:28:34 10° N 21:32:27 29° ENE 21:35:17 16° ESE
Cosmos 1766 Rocket 3.5 21:28:55 10° S 21:33:18 85° ESE 21:37:42 10° NNE
COSMOS 2428 3.3 21:31:25 10° NNW 21:36:59 49° NE 21:41:31 15° ESE
NOSS 2-1 (E) 3.2 21:34:14 10° SSW 21:37:19 41° SE 21:40:37 10° NE
JB-3 4.5 21:33:48 10° NNE 21:37:57 81° WNW 21:42:01 10° SSW
SPOT 5 2.6 21:36:47 15° SSE 21:40:22 86° W 21:44:53 10° NNW
ARIANE 5 R/B 2.8 21:36:31 13° S 21:40:28 72° WSW 21:44:56 10° NNW
NOSS 3-1 (C) 4.1 21:35:07 10° NW 21:42:23 86° SW 21:49:23 17° SE
Cosmos 1782 4.2 21:39:17 10° NNW 21:43:00 36° W 21:46:41 10° SSW
Cosmos 1862 3.3 21:39:48 14° S 21:43:12 66° E 21:47:10 10° NNE
Cosmos 292 Rocket 3.7 21:38:52 10° NNW 21:43:40 88° WSW 21:47:10 19° SSE
Meteor 2-6 Rocket 4.2 21:41:57 10° NNW 21:47:23 76° W 21:52:01 14° S
S3M 4.1 21:46:13 10° N 21:52:39 85° ENE 21:57:51 16° SSE
Meteor 2-21 Rocket 4.5 21:50:10 11° S 21:56:04 73° E 22:02:13 10° NNE
USA 229 DEB 3.9 21:51:07 10° NW 21:58:22 82° NE 22:04:26 18° SE
USA 229 4.0 21:51:13 10° NW 21:58:27 82° NE 22:04:33 18° SE
Cosmos 1655 Rocket 4.1 21:54:12 14° S 21:59:38 65° E 22:05:59 10° NNE
Cosmos 1420 Rocket 4.3 21:55:22 10° NNW 22:00:39 64° WSW 22:04:27 19° S
COSMOS 2487 3.4 22:00:10 26° ESE 22:00:42 27° ESE 22:03:38 10° NE
Cosmos 2360 Rocket 2.8 21:56:03 10° NW 22:01:29 50° WSW 22:05:41 17° S
Cosmos 1174 4.1 22:02:34 10° NW 22:05:22 35° WSW 22:06:29 25° SSW
Cosmos 2084 Rocket 4.2 22:02:07 10° NW 22:06:08 47° NE 22:09:17 16° ESE
CZ-4C R/B 4.1 22:01:41 10° NW 22:07:28 35° NNE 22:14:20 10° E
Cosmos 1812 4.2 22:09:02 10° NNW 22:12:31 33° W 22:15:34 12° SSW
USA 267 4.2 22:07:31 10° ENE 22:12:45 25° SE 22:14:47 21° SSE
ATLAS 2AS CENTAUR R/B 4.4 22:06:05 10° W 22:13:24 40° NNW 22:20:23 10° NE
NOSS 0 Rocket 4.3 22:08:18 10° NNW 22:14:29 58° NE 22:18:54 19° SE
Cosmos 1500 Rocket 3.6 22:11:54 23° S 22:14:31 66° E 22:18:57 10° NNE
Cosmos 2084 3.6 22:12:09 10° SW 22:16:14 72° NW 22:20:28 10° NE
NOSS 3-1 (A) 4.0 22:11:35 10° NW 22:18:51 84° SW 22:25:00 21° SE
NOSS 2-1 (C) 3.1 22:18:18 10° SW 22:21:33 70° NW 22:25:05 10° NE
Meteor 1-27 Rocket 3.8 22:16:21 10° NNW 22:22:02 83° W 22:25:47 23° S
SL-27 R/B 3.2 22:18:33 10° SW 22:22:05 54° WNW 22:25:39 10° NNE
Cosmos 1833 4.2 22:17:02 10° SSW 22:22:50 88° ESE 22:28:38 10° NNE
Cosmos 2333 Rocket 2.4 22:17:23 10° NW 22:23:00 65° WSW 22:26:23 24° S
COSMOS 2455 2.9 22:17:53 13° SSW 22:23:10 55° ESE 22:29:03 10° NE
Cosmos 1452 Rocket 3.5 22:17:57 10° NNW 22:23:14 77° WSW 22:26:16 26° SSE
Lacrosse 5 3.7 22:25:50 14° ESE 22:25:50 14° ESE 22:27:19 10° E
ERS-1 Rocket 4.0 22:20:25 14° SSW 22:24:23 39° W 22:29:08 10° NNW
H-2A R/B 3.5 22:20:43 10° NNE 22:24:54 68° ESE 22:27:05 27° S
COBE Rocket 4.1 22:26:51 27° SE 22:29:11 56° ENE 22:33:50 10° N
NOSS 2-1 (D) 3.4 22:26:06 10° WSW 22:29:20 60° NW 22:32:52 10° NE
BREEZE-M R/B 4.2 22:26:49 10° SW 22:31:56 18° ESE 22:33:28 10° E
Cosmos 2322 4.0 22:24:26 10° NW 22:30:06 62° WSW 22:33:25 25° S
Cosmos 1408 Rocket 4.3 22:27:58 12° SSW 22:31:50 51° WNW 22:36:04 10° N
Cosmos 2297 Rocket 3.8 22:32:08 17° ESE 22:33:10 17° E 22:36:46 10° ENE
Cosmos 2322 Rocket 4.2 22:31:28 10° WNW 22:35:13 18° W 22:38:56 10° SW
Cosmos 1743 Rocket 3.6 22:32:53 23° SSW 22:35:37 82° W 22:40:05 10° N
Sich 1 3.4 22:34:10 32° SSE 22:35:45 49° E 22:39:57 10° NNE
Cosmos 2237 Rocket 2.8 22:30:15 10° NNW 22:35:49 52° NE 22:39:29 21° ESE
BREEZE-M DEB (TANK) 2.9 22:37:51 10° W 22:42:13 32° SSW 22:42:19 32° SSW
Cosmos 1633 Rocket 4.0 22:44:03 27° ESE 22:45:10 31° E 22:49:02 10° NNE
Cosmos 2227 Rocket 3.9 22:44:30 16° ESE 22:45:29 16° E 22:48:52 10° ENE
Cosmos 1110 Rocket 4.0 22:40:10 10° NNW 22:45:32 90° ENE 22:48:10 31° SSE
Cosmos 1331 Rocket 3.9 22:42:44 10° NNW 22:48:01 86° ENE 22:50:32 32° SSE
USA 234 3.3 22:42:59 11° ESE 22:49:22 83° NNE 22:55:57 10° WNW
IRIDIUM 104 4.4 22:44:23 10° N 22:49:36 73° W 22:52:31 27° S
Cosmos 1666 Rocket 4.1 22:50:45 34° SE 22:52:03 43° E 22:56:18 10° NNE
Cosmos 2219 Rocket 2.7 22:48:01 10° NW 22:53:24 48° WSW 22:56:08 27° S
NOSS 2-2 (E) 4.3 22:51:24 10° NW 22:56:26 82° NE 23:00:50 23° SE
Terra 3.5 22:57:53 14° SW 23:00:59 25° W 23:04:57 10° NW
Cosmos 1515 3.7 23:00:10 10° NNW 23:03:57 71° W 23:04:57 46° SSW
Spot 4 3.8 23:03:05 36° SSE 23:05:06 88° WSW 23:10:00 10° NNW
SL-16 R/B 3.4 22:59:56 10° NNW 23:05:12 37° NE 23:09:37 14° ESE
Meteor 1-18 Rocket 4.3 23:02:05 10° NNW 23:07:59 80° ENE 23:10:44 33° SSE
Meteor 1-25 Rocket 4.1 23:06:07 30° S 23:09:02 84° ESE 23:14:38 10° NNE
Cosmos 489 Rocket 4.4 23:06:28 23° SSW 23:10:36 82° ESE 23:17:01 10° NNE
Cosmos 2228 Rocket 4.2 23:06:39 10° NNW 23:10:44 37° W 23:12:46 24° SW
ATLAS 5 CENTAUR R/B 2.6 23:06:38 10° NW 23:11:56 51° SW 23:14:35 31° S
Cosmos 1862 Rocket 3.6 23:08:24 10° N 23:12:45 69° ENE 23:14:06 42° SE
Cosmos 468 4.5 23:10:05 24° SSW 23:13:17 85° WNW 23:18:34 10° NNE
Okean 1 3.3 23:10:00 10° NNW 23:14:01 78° W 23:15:05 47° S
Cosmos 494 Rocket 3.9 23:12:47 30° SSW 23:15:23 84° ESE 23:20:34 10° NNE
Cosmos 1602 3.6 23:14:27 47° SSW 23:15:30 84° W 23:19:22 10° N
COSMOS 2428 3.6 23:15:57 10° NW 23:21:09 37° WSW 23:23:31 26° SSW
NOSS 2-2 (C) 4.2 23:16:25 10° NW 23:21:25 87° SW 23:25:11 27° SE
Cosmos 1707 Rocket 3.8 23:17:19 10° NNW 23:21:38 59° W 23:23:04 38° SSW
SL-08 ROCKET BODY 4.4 23:19:01 32° S 23:21:59 75° E 23:28:10 10° NNE
Meteor 2-4 Rocket 3.9 23:16:16 10° N 23:22:15 73° ENE 23:24:59 33° SSE
Meteor 1-19 Rocket 4.3 23:20:38 10° NNW 23:26:12 66° W 23:28:36 34° SSW
Cosmos 1666 3.3 23:26:25 39° ESE 23:26:51 40° E 23:30:29 10° NNE
Cosmos 1703 Rocket 4.5 23:24:02 10° N 23:28:08 38° ENE 23:29:38 29° ESE
Cosmos 1048 Rocket 4.4 23:28:52 20° SW 23:32:24 60° WNW 23:37:30 10° NNE
COSMOS 2487 4.3 23:33:23 15° WSW 23:35:28 27° WNW 23:38:27 10° N
TSX-5 4.0 23:35:45 51° SSE 23:36:30 60° ESE 23:41:24 10° NE
ALOS 2 2.6 23:36:46 46° S 23:38:00 73° WSW 23:42:26 10° NNW
Cosmos 1745 Rocket 4.1 23:39:16 34° SSE 23:42:05 68° E 23:48:21 10° NNE
Cosmos 1302 Rocket 4.1 23:38:35 10° NNW 23:43:46 66° WSW 23:45:34 40° S
Cosmos 2219 3.7 23:42:23 35° SSE 23:44:07 46° ESE 23:49:37 10° NE
Cosmos 2084 Rocket 4.1 23:41:41 10° WNW 23:45:33 36° SW 23:45:47 36° SW
Cosmos 1269 Rocket 4.1 23:47:42 40° S 23:49:27 64° ESE 23:54:42 10° NNE
Meteor 1-14 Rocket 4.1 23:51:46 37° S 23:54:08 89° ESE 23:59:51 10° NNE
Okean 1-7 3.1 23:51:00 10° N 23:55:15 66° ENE 23:56:20 46° SE
